Tucumcari, NM

10:27 AM MDT on May 27, 2017 (GMT -0600)
Tucumcari Municipal

Weather History for KTCC - July, 2013

Change the Weather History Date:

Tuesday, July 30, 2013

  Actual Average Record
Temperature  
Mean Temperature 84 °F -  
Max Temperature 98 °F 92 °F 106 °F (1934)
Min Temperature 69 °F 64 °F 55 °F (1974)
Cooling Degree Days 18    
Growing Degree Days 34 (Base 50)    
Moisture  
Dew Point 58 °F    
Average Humidity 45    
Maximum Humidity 73    
Minimum Humidity 14    
Precipitation  
Precipitation 0.00 in - - ()
Sea Level Pressure  
Sea Level Pressure 29.95 in    
Wind  
Wind Speed 10 mph (NE)    
Max Wind Speed 17 mph    
Max Gust Speed 24 mph    
Visibility 10 miles    
Events      
Averages and records for this station are not official NWS values.
T = Trace of Precipitation, MM = Missing Value Source: NWS Daily Summary

Daily Weather History Graph

Daily Weather History Graph

Search for Another Location

Airport or City:

Trip Planner

Search our weather history database for the weather conditions in past years. The results will help you decide how hot, cold, wet, or windy it might be!

Date:

Astronomy

Jul. 30, 2013 Rise Set
Actual Time 6:02 AM MDT 7:58 PM MDT
Civil Twilight 5:34 AM MDT 8:26 PM MDT
Nautical Twilight 5:00 AM MDT 9:00 PM MDT
Astronomical Twilight 4:23 AM MDT 9:37 PM MDT
Moon 12:19 AM MDT (7/30) 2:22 PM MDT (7/30)
Length of Visible Light 14h 52m
Length of Day
13h 56m
Last Quarter, 40% of the Moon is Illuminated
Jul 30
Last Quarter
Aug 6
New
Aug 14
First Quarter
Aug 20
Full
Aug 28
Last Quarter

Hourly Weather History & Observations

Time (MDT) Temp. Heat Index Dew Point Humidity Pressure Visibility Wind Dir Wind Speed Gust Speed Precip Events Conditions
12:53 AM 78.1 °F - 57.9 °F 50% 29.85 in 10.0 mi NNE 17.3 mph 24.2 mph N/A   Clear
1:53 AM 75.9 °F - 60.1 °F 58% 29.90 in 10.0 mi NNE 9.2 mph - N/A   Clear
2:53 AM 73.0 °F - 61.0 °F 66% 29.92 in 10.0 mi NNE 9.2 mph - N/A   Clear
3:53 AM 72.0 °F - 61.0 °F 68% 29.94 in 10.0 mi NNE 5.8 mph - N/A   Clear
4:53 AM 71.1 °F - 61.0 °F 70% 29.96 in 10.0 mi North 10.4 mph - N/A   Clear
5:53 AM 69.1 °F - 60.1 °F 73% 29.98 in 10.0 mi North 6.9 mph - N/A   Clear
6:53 AM 72.0 °F - 62.1 °F 71% 29.99 in 10.0 mi NNW 6.9 mph - N/A   Clear
7:53 AM 75.9 °F - 62.1 °F 62% 30.00 in 10.0 mi North 11.5 mph - N/A   Clear
8:53 AM 79.0 °F - 63.0 °F 58% 30.01 in 10.0 mi North 9.2 mph - N/A   Clear
9:53 AM 82.0 °F 83.4 °F 64.0 °F 54% 30.00 in 10.0 mi North 6.9 mph - N/A   Clear
10:53 AM 86.0 °F 87.3 °F 64.0 °F 48% 29.99 in 10.0 mi Variable 4.6 mph - N/A   Clear
11:53 AM 89.1 °F 89.3 °F 62.1 °F 40% 29.99 in 10.0 mi Variable 4.6 mph - N/A   Clear
12:53 PM 91.9 °F 91.8 °F 61.0 °F 35% 29.96 in 10.0 mi Variable 4.6 mph - N/A   Clear
1:53 PM 93.9 °F 92.9 °F 57.9 °F 30% 29.94 in 10.0 mi SE 6.9 mph - N/A   Clear
2:53 PM 96.1 °F 93.8 °F 54.0 °F 24% 29.92 in 10.0 mi Variable 3.5 mph - N/A   Clear
3:53 PM 98.1 °F - 50.0 °F 20% 29.90 in 10.0 mi WNW 12.7 mph 17.3 mph N/A   Clear
4:53 PM 97.0 °F - 48.0 °F 19% 29.89 in 10.0 mi SE 6.9 mph - N/A   Partly Cloudy
5:53 PM 97.0 °F - 41.0 °F 14% 29.88 in 10.0 mi Calm Calm - N/A   Scattered Clouds
6:53 PM 95.0 °F - 45.0 °F 18% 29.87 in 10.0 mi East 3.5 mph - N/A   Clear
7:53 PM 90.0 °F 89.1 °F 59.0 °F 35% 29.91 in 10.0 mi ESE 17.3 mph 24.2 mph N/A   Clear
8:53 PM 86.0 °F 85.0 °F 57.9 °F 38% 29.94 in 10.0 mi SE 15.0 mph - N/A   Clear
9:53 PM 84.0 °F 83.5 °F 57.9 °F 41% 29.97 in 10.0 mi SE 10.4 mph - N/A   Clear
10:53 PM 82.0 °F 82.1 °F 59.0 °F 45% 29.98 in 10.0 mi ESE 9.2 mph - N/A   Clear
11:53 PM 79.0 °F - 59.0 °F 50% 29.99 in 10.0 mi ESE 6.9 mph - N/A   Clear